Location: Pradons
(44.4746°N, 4.3578°E)
Time: 15:57:20
(UTC+00:00)

Cosmos 1140 Rocket - Pass Details

Date: 09 April 2020
Orbit: 745 x 767 km, 74.1° (Epoch: 04 June)

Event Time Altitude Azimuth Distance (km) Brightness Sun altitude
Rises 20:03:58 0° 214° (SW) 3,202 6.8 -17.9°
Reaches altitude 10° 20:06:24 10° 220° (SW) 2,278 6.0 -18.3°
Maximum altitude 20:11:25 50° 295° (WNW) 955 4.4 -19.1°
Drops below altitude 10° 20:16:26 10° 11° (NNE) 2,279 6.2 -19.8°
Sets 20:18:52 0° 17° (NNE) 3,204 6.9 -20.2°
